Вернуться в каталог

COSMOS 650

АктивенВоенныеLEO
NORAD 7281·PAYLOAD·🇷🇺 Russia

Запущен Apr 29, 1974 с Plesetsk Cosmodrome

Loading…

Ближайшие Пролёты (ближайшие 24 часа)

TLE

СвежийSource: Space-Track

Эпоха: Sep 14, 2026, 10:54 UTC

1 07281U 74028A   26257.45426080 -.00000031  00000-0 -72442-4 0  9999
2 07281  74.0403  69.4319 0021642 286.5572  88.0264 12.69568914427507

Отслеживайте COSMOS 650 в реальном времени с AllMySat

Download on the App Store